When you browse on this site, cookies collect data to enhance your experience and personalize the content and advertising you see.
Visit our Privacy Policy to learn more. By continuing to use the site, you agree to this use of cookies and data.
  • In Österreich
  • Länderverzeichnis
  • Für 7 Tage
  • Wassertemperatur
  • Satellitenkarten
  • Wetterkarte
  • News
  • Widgets
  • user-avatar
    Anmelden

    Stündliche Wetter Ganja

    Heute, 19 Juli, Freitag

    Zeit Temperatur Niederschläge Wind Luftdruck Luftfeuchtigkeit
    00:00 +28°C° 0 mm 2 m/S 720 mmHg 56%
    01:00 +27°C° 0 mm 2 m/S 720 mmHg 58%
    02:00 +26°C° 0 mm 2 m/S 720 mmHg 61%
    03:00 +25°C° 0 mm 1 m/S 721 mmHg 64%
    04:00 +26°C° 0 mm 2 m/S 721 mmHg 64%
    05:00 +26°C° 0 mm 2 m/S 722 mmHg 65%
    06:00 +26°C° 0 mm 2 m/S 722 mmHg 65%
    07:00 +27°C° 0 mm 3 m/S 722 mmHg 62%
    08:00 +29°C° 0 mm 3 m/S 722 mmHg 58%
    09:00 +30°C° 0 mm 3 m/S 722 mmHg 55%
    10:00 +31°C° 0 mm 3 m/S 722 mmHg 52%
    11:00 +33°C° 0 mm 3 m/S 722 mmHg 49%
    12:00 +34°C° 0 mm 2 m/S 722 mmHg 46%
    13:00 +35°C° 0 mm 2 m/S 722 mmHg 44%
    14:00 +35°C° 0 mm 3 m/S 722 mmHg 42%
    15:00 +36°C° 0 mm 3 m/S 722 mmHg 39%
    16:00 +36°C° 0 mm 3 m/S 722 mmHg 40%
    17:00 +36°C° 0 mm 3 m/S 722 mmHg 41%
    18:00 +35°C° 0 mm 3 m/S 722 mmHg 42%
    19:00 +34°C° 0 mm 3 m/S 723 mmHg 44%
    20:00 +33°C° 0 mm 3 m/S 723 mmHg 47%
    21:00 +30°C° 0 mm 2 m/S 724 mmHg 49%
    22:00 +29°C° 0 mm 2 m/S 724 mmHg 52%
    23:00 +28°C° 0 mm 2 m/S 724 mmHg 55%

    Morgen, 20 Juli, Samstag

    Zeit Temperatur Niederschläge Wind Luftdruck Luftfeuchtigkeit
    00:00 +27°C° 0 mm 2 m/S 725 mmHg 58%
    01:00 +27°C° 0 mm 2 m/S 725 mmHg 60%
    02:00 +26°C° 0 mm 2 m/S 725 mmHg 61%
    03:00 +26°C° 0 mm 2 m/S 724 mmHg 63%
    04:00 +26°C° 0 mm 3 m/S 725 mmHg 63%
    05:00 +26°C° 0 mm 3 m/S 725 mmHg 63%
    06:00 +26°C° 0 mm 3 m/S 725 mmHg 62%
    07:00 +28°C° 0 mm 3 m/S 725 mmHg 59%
    08:00 +29°C° 0 mm 3 m/S 725 mmHg 55%
    09:00 +30°C° 0 mm 3 m/S 726 mmHg 52%
    10:00 +31°C° 0 mm 3 m/S 726 mmHg 48%
    11:00 +34°C° 0 mm 3 m/S 726 mmHg 45%
    12:00 +35°C° 0 mm 3 m/S 726 mmHg 41%
    13:00 +36°C° 0 mm 4 m/S 725 mmHg 38%
    14:00 +37°C° 0 mm 5 m/S 725 mmHg 35%
    15:00 +39°C° 0 mm 6 m/S 725 mmHg 32%
    16:00 +38°C° 0 mm 6 m/S 725 mmHg 33%
    17:00 +37°C° 0 mm 5 m/S 725 mmHg 35%
    18:00 +36°C° 0 mm 5 m/S 725 mmHg 36%
    19:00 +35°C° 0 mm 5 m/S 726 mmHg 38%
    20:00 +33°C° 0 mm 5 m/S 726 mmHg 40%
    21:00 +32°C° 0 mm 5 m/S 727 mmHg 42%
    22:00 +30°C° 0 mm 5 m/S 727 mmHg 43%
    23:00 +30°C° 0 mm 5 m/S 727 mmHg 43%

    übermorgen, 21 Juli, Sonntag

    Zeit Temperatur Niederschläge Wind Luftdruck Luftfeuchtigkeit
    00:00 +29°C° 0 mm 4 m/S 727 mmHg 44%
    01:00 +28°C° 0 mm 4 m/S 727 mmHg 45%
    02:00 +28°C° 0 mm 4 m/S 727 mmHg 46%
    03:00 +27°C° 0 mm 4 m/S 727 mmHg 48%
    04:00 +27°C° 0 mm 4 m/S 727 mmHg 48%
    05:00 +27°C° 0 mm 3 m/S 727 mmHg 49%
    06:00 +28°C° 0 mm 3 m/S 727 mmHg 49%
    07:00 +29°C° 0 mm 4 m/S 727 mmHg 46%
    08:00 +32°C° 0 mm 4 m/S 727 mmHg 42%
    09:00 +33°C° 0 mm 4 m/S 727 mmHg 39%
    10:00 +34°C° 0 mm 5 m/S 727 mmHg 37%
    11:00 +35°C° 0 mm 6 m/S 726 mmHg 35%
    12:00 +38°C° 0 mm 6 m/S 726 mmHg 33%
    13:00 +38°C° 0 mm 6 m/S 726 mmHg 32%
    14:00 +38°C° 0 mm 6 m/S 725 mmHg 31%
    15:00 +39°C° 0 mm 6 m/S 724 mmHg 31%
    16:00 +38°C° 0 mm 6 m/S 724 mmHg 32%
    17:00 +37°C° 0 mm 5 m/S 724 mmHg 33%
    18:00 +36°C° 0 mm 4 m/S 724 mmHg 35%
    19:00 +35°C° 0 mm 4 m/S 725 mmHg 37%
    20:00 +34°C° 0 mm 4 m/S 725 mmHg 39%
    21:00 +32°C° 0 mm 4 m/S 725 mmHg 42%
    22:00 +30°C° 0 mm 4 m/S 725 mmHg 43%
    23:00 +30°C° 0 mm 4 m/S 725 mmHg 44%

    22 Juli, Montag

    Zeit Temperatur Niederschläge Wind Luftdruck Luftfeuchtigkeit
    00:00 +29°C° 0 mm 3 m/S 725 mmHg 45%
    01:00 +28°C° 0 mm 3 m/S 725 mmHg 47%
    02:00 +28°C° 0 mm 2 m/S 725 mmHg 49%
    03:00 +27°C° 0 mm 2 m/S 724 mmHg 51%
    04:00 +27°C° 0 mm 1 m/S 724 mmHg 52%
    05:00 +27°C° 0 mm 1 m/S 724 mmHg 53%
    06:00 +28°C° 0 mm 1 m/S 724 mmHg 54%
    07:00 +29°C° 0 mm 1 m/S 724 mmHg 50%
    08:00 +30°C° 0 mm 2 m/S 724 mmHg 47%
    09:00 +31°C° 0 mm 2 m/S 724 mmHg 43%
    10:00 +34°C° 0 mm 2 m/S 723 mmHg 41%
    11:00 +35°C° 0 mm 2 m/S 723 mmHg 39%
    12:00 +36°C° 0 mm 2 m/S 723 mmHg 36%
    13:00 +37°C° 0 mm 2 m/S 722 mmHg 35%
    14:00 +38°C° 0 mm 3 m/S 722 mmHg 33%
    15:00 +38°C° 0 mm 3 m/S 722 mmHg 31%
    16:00 +38°C° 0 mm 3 m/S 721 mmHg 32%
    17:00 +38°C° 0 mm 3 m/S 721 mmHg 33%
    18:00 +37°C° 0 mm 3 m/S 721 mmHg 34%
    19:00 +36°C° 0 mm 3 m/S 722 mmHg 36%
    20:00 +35°C° 0 mm 3 m/S 722 mmHg 39%
    21:00 +33°C° 0 mm 3 m/S 723 mmHg 41%
    22:00 +31°C° 0 mm 3 m/S 722 mmHg 44%
    23:00 +30°C° 0 mm 2 m/S 722 mmHg 48%

    23 Juli, Dienstag

    Zeit Temperatur Niederschläge Wind Luftdruck Luftfeuchtigkeit
    00:00 +29°C° 0 mm 2 m/S 722 mmHg 52%
    01:00 +28°C° 0 mm 2 m/S 722 mmHg 55%
    02:00 +27°C° 0 mm 2 m/S 722 mmHg 57%
    03:00 +27°C° 0 mm 2 m/S 722 mmHg 59%
    04:00 +27°C° 0 mm 2 m/S 722 mmHg 60%
    05:00 +27°C° 0 mm 2 m/S 722 mmHg 61%
    06:00 +27°C° 0 mm 2 m/S 723 mmHg 61%
    07:00 +28°C° 0 mm 2 m/S 722 mmHg 57%
    08:00 +30°C° 0 mm 2 m/S 722 mmHg 53%
    09:00 +31°C° 0 mm 3 m/S 722 mmHg 49%
    10:00 +34°C° 0 mm 3 m/S 722 mmHg 44%
    11:00 +35°C° 0 mm 4 m/S 722 mmHg 38%
    12:00 +37°C° 0 mm 5 m/S 721 mmHg 33%
    13:00 +38°C° 0 mm 6 m/S 721 mmHg 33%
    14:00 +38°C° 0 mm 6 m/S 720 mmHg 33%
    15:00 +39°C° 0 mm 6 m/S 720 mmHg 33%
    16:00 +38°C° 0 mm 6 m/S 720 mmHg 34%
    17:00 +36°C° 0 mm 5 m/S 720 mmHg 36%
    18:00 +36°C° 0 mm 5 m/S 720 mmHg 38%
    19:00 +35°C° 0 mm 4 m/S 720 mmHg 41%
    20:00 +33°C° 0 mm 4 m/S 721 mmHg 43%
    21:00 +31°C° 0 mm 3 m/S 721 mmHg 46%
    22:00 +30°C° 0 mm 3 m/S 721 mmHg 48%
    23:00 +29°C° 0 mm 3 m/S 721 mmHg 49%

    24 Juli, Mittwoch

    Zeit Temperatur Niederschläge Wind Luftdruck Luftfeuchtigkeit
    00:00 +29°C° 0 mm 2 m/S 721 mmHg 50%
    01:00 +28°C° 0 mm 2 m/S 721 mmHg 52%
    02:00 +27°C° 0 mm 2 m/S 721 mmHg 54%
    03:00 +27°C° 0 mm 1 m/S 721 mmHg 56%
    04:00 +27°C° 0 mm 1 m/S 721 mmHg 56%
    05:00 +27°C° 0 mm 1 m/S 721 mmHg 57%
    06:00 +27°C° 0 mm 1 m/S 721 mmHg 57%
    07:00 +29°C° 0 mm 1 m/S 721 mmHg 54%
    08:00 +30°C° 0 mm 2 m/S 720 mmHg 51%
    09:00 +31°C° 0 mm 2 m/S 720 mmHg 48%
    10:00 +34°C° 0 mm 2 m/S 720 mmHg 44%
    11:00 +35°C° 0 mm 2 m/S 720 mmHg 41%
    12:00 +36°C° 0 mm 2 m/S 719 mmHg 38%
    13:00 +37°C° 0 mm 2 m/S 719 mmHg 36%
    14:00 +38°C° 0 mm 2 m/S 719 mmHg 34%
    15:00 +38°C° 0 mm 2 m/S 718 mmHg 32%
    16:00 +38°C° 0 mm 2 m/S 718 mmHg 33%
    17:00 +38°C° 0 mm 2 m/S 718 mmHg 33%
    18:00 +38°C° 0 mm 2 m/S 718 mmHg 33%
    19:00 +36°C° 0 mm 2 m/S 719 mmHg 36%
    20:00 +34°C° 0 mm 2 m/S 719 mmHg 39%
    21:00 +32°C° 0 mm 2 m/S 720 mmHg 42%
    22:00 +31°C° 0 mm 2 m/S 720 mmHg 44%
    23:00 +30°C° 0 mm 2 m/S 720 mmHg 46%
    Mehr zeigen